LEMUR-2-YUASA (43560 NORAD) Tracking and Keplerian Element Data

This shows tracking and keplerian element data for the satellite.

Feedback or suggestion? Click here.




ElementValue
Catalog43560
NameLEMUR-2-YUASA
Epoch Orbit4770
Epoch Day144.48220409
Epoch Year2019
RAAN176.8311
Inclination51.6417
Eccentricity0.0008226
Argument of Perigee357.5864
Mean Anonmoly2.5075
Mean Motion15.29225851
Decay Rate7.52E-06
L11 43560U 18046G 19144.48220409 .00000752 00000-0 38652-4 0 9997
L22 43560 51.6417 176.8311 0008226 357.5864 2.5075 15.29225851 47704

Live tracking and technical data element details for LEMUR-2-YUASA (NORAD 43560). LEMUR-2-YUASA can be tracked NOW for your location showing map with azimuth and elevation plus other details from your city location.

Track the satellite on the map from your city or location and see movement details for azimuth, elevation, latitude, longitude, range, height, and movement on the map or in text.







IsCatalogInMostPopularTable: catalog: 43560, numindb: 146
Update: records affected: 1



GetName: 43560 LEMUR-2-YUASA

Hit Count: updated at: Fri, 24 May 2019 21:23:55 GMT